Location: Sagn�
(15.2046°N, 12.7898°W)
Time: 13:15:42
(UTC+00:00)

Cosmos 1437 Rocket - Pass Details

Date: 08 May 2021
Orbit: 501 x 565 km, 81.2° (Epoch: 14 June)

Event Time Altitude Azimuth Distance (km) Brightness Sun altitude
Exits shadow 20:24:06 29° 69° (ENE) 957 3.6 -17.4°
Drops below altitude 10° 20:26:45 10° 30° (NNE) 1,739 5.3 -17.9°
Sets 20:29:03 0° 20° (NNE) 2,637 6.4 -18.4°
